Wellsville, NY

2:03 PM EST on February 23, 2018 (GMT -0500)
Wellsville Municipal-Tarantine

Weather History for KELZ - February, 2013

Change the Weather History Date:

Saturday, February 23, 2013

  Actual Average (KDSV) Record (KDSV)
Temperature  
Mean Temperature 30 °F -  
Max Temperature 34 °F 43 °F 69 °F (2017)
Min Temperature 26 °F 23 °F -11 °F (2015)
Degree Days  
Heating Degree Days 35    
Moisture  
Dew Point 26 °F    
Average Humidity 85    
Maximum Humidity 93    
Minimum Humidity 75    
Precipitation  
Precipitation 0.01 in - - ()
Sea Level Pressure  
Sea Level Pressure 29.91 in    
Wind  
Wind Speed 9 mph (South)    
Max Wind Speed 13 mph    
Max Gust Speed 22 mph    
Visibility 6 miles    
Events Fog    
Averages and records for this station are not official NWS values.
T = Trace of Precipitation, MM = Missing Value Source: NWS Daily Summary

Daily Weather History Graph

Daily Weather History Graph

Search for Another Location

Airport or City:

Trip Planner

Search our weather history database for the weather conditions in past years. The results will help you decide how hot, cold, wet, or windy it might be!

Date:

Astronomy

Feb. 23, 2013 Rise Set
Actual Time 6:56 AM EST 5:55 PM EST
Civil Twilight 6:27 AM EST 6:23 PM EST
Nautical Twilight 5:55 AM EST 6:55 PM EST
Astronomical Twilight 5:23 AM EST 7:28 PM EST
Moon 4:02 PM EST 5:18 AM EST
Length of Visible Light 11h 55m
Length of Day
10h 58m
Waxing Gibbous, 95% of the Moon is Illuminated
Feb 23
Waxing Gibbous
Feb 25
Full
Mar 4
Last Quarter
Mar 11
New
Mar 19
First Quarter

Hourly Weather History & Observations

Time (EST) Temp. Windchill Dew Point Humidity Pressure Visibility Wind Dir Wind Speed Gust Speed Precip Events Conditions
12:56 AM 26.1 °F 15.0 °F 21.0 °F 81% 30.07 in 10.0 mi SSE 12.7 mph - N/A   Overcast
1:42 AM 26.6 °F 16.8 °F 21.2 °F 80% 29.97 in 10.0 mi SSE 10.4 mph 19.6 mph 0.00 in   Overcast
1:56 AM 26.1 °F 16.8 °F 21.0 °F 81% 30.04 in 9.0 mi South 9.2 mph 20.7 mph 0.00 in   Overcast
2:56 AM 27.0 °F 16.1 °F 21.0 °F 78% 30.04 in 10.0 mi SSE 12.7 mph 20.7 mph 0.00 in   Overcast
3:56 AM 27.0 °F 16.1 °F 21.9 °F 81% 30.02 in 10.0 mi South 12.7 mph 21.9 mph 0.00 in   Overcast
4:56 AM 27.0 °F 17.3 °F 21.9 °F 81% 30.00 in 8.0 mi South 10.4 mph - N/A   Overcast
5:56 AM 27.0 °F 18.0 °F 23.0 °F 85% 29.99 in 6.0 mi South 9.2 mph - N/A   Overcast
6:56 AM 27.0 °F 16.7 °F 24.1 °F 89% 30.00 in 7.0 mi South 11.5 mph - N/A   Overcast
7:36 AM 28.4 °F 19.1 °F 24.8 °F 86% 29.92 in 3.0 mi SSE 10.4 mph 20.7 mph N/A   Overcast
7:45 AM 28.4 °F 19.7 °F 24.8 °F 86% 29.91 in 2.5 mi SSE 9.2 mph - N/A   Overcast
7:52 AM 28.4 °F 18.5 °F 24.8 °F 86% 29.91 in 3.0 mi SSE 11.5 mph - N/A   Overcast
7:56 AM 28.0 °F 18.1 °F 25.0 °F 88% 29.99 in 3.0 mi SSE 11.5 mph - N/A   Overcast
8:56 AM 28.9 °F 21.9 °F 26.1 °F 89% 29.99 in 5.0 mi SSE 6.9 mph - N/A   Overcast
9:56 AM 30.0 °F 25.2 °F 26.1 °F 85% 29.96 in 6.0 mi Variable 4.6 mph - 0.01 in   Overcast
10:56 AM 30.0 °F 26.5 °F 27.0 °F 88% 29.97 in 6.0 mi SSE 3.5 mph - N/A   Overcast
11:56 AM 30.9 °F 24.3 °F 28.0 °F 89% 29.96 in 5.0 mi South 6.9 mph - N/A   Overcast
12:34 PM 30.2 °F 21.3 °F 28.4 °F 93% 29.87 in 2.0 mi South 10.4 mph - N/A   Overcast
12:51 PM 32.0 °F 24.8 °F 28.4 °F 87% 29.86 in 3.0 mi South 8.1 mph - N/A   Overcast
12:56 PM 32.0 °F 26.4 °F 28.9 °F 88% 29.94 in 3.0 mi Variable 5.8 mph - N/A   Overcast
1:10 PM 32.0 °F 26.4 °F 28.4 °F 87% 29.86 in 2.5 mi Variable 5.8 mph - N/A   Overcast
1:32 PM 32.0 °F 28.7 °F 28.4 °F 87% 29.85 in 3.0 mi Variable 3.5 mph - N/A   Overcast
1:56 PM 32.0 °F 27.5 °F 28.9 °F 88% 29.91 in 4.0 mi SSW 4.6 mph - N/A   Overcast
2:34 PM 33.8 °F - 28.4 °F 81% 29.83 in 7.0 mi Calm Calm - N/A   Overcast
2:56 PM 34.0 °F 27.2 °F 28.9 °F 82% 29.90 in 8.0 mi SSW 8.1 mph - N/A   Overcast
3:56 PM 34.0 °F 29.8 °F 28.9 °F 82% 29.89 in 10.0 mi WSW 4.6 mph - N/A   Overcast
4:16 PM 33.8 °F 27.7 °F 28.4 °F 81% 29.82 in 10.0 mi SW 6.9 mph - N/A   Overcast
4:52 PM 33.8 °F 29.6 °F 28.4 °F 81% 29.83 in 10.0 mi SW 4.6 mph - N/A   Overcast
4:56 PM 34.0 °F 29.8 °F 28.9 °F 82% 29.90 in 10.0 mi SW 4.6 mph - N/A   Overcast
5:48 PM 33.8 °F 30.8 °F 28.4 °F 81% 29.82 in 8.0 mi SSW 3.5 mph - N/A   Overcast
5:56 PM 34.0 °F 28.8 °F 28.9 °F 82% 29.89 in 8.0 mi SSW 5.8 mph - N/A   Overcast
6:56 PM 33.1 °F 30.0 °F 28.9 °F 85% 29.90 in 10.0 mi SW 3.5 mph - N/A   Overcast
7:48 PM 33.8 °F 30.8 °F 28.4 °F 81% 29.82 in 10.0 mi SW 3.5 mph - N/A   Overcast
7:56 PM 34.0 °F 29.8 °F 27.0 °F 75% 29.88 in 10.0 mi SW 4.6 mph - N/A   Overcast
8:56 PM 33.1 °F - 27.0 °F 78% 29.89 in 10.0 mi Calm Calm - N/A   Overcast
9:32 PM 30.2 °F 21.9 °F 26.6 °F 86% 29.82 in 5.0 mi NNE 9.2 mph - N/A   Overcast
9:45 PM 30.2 °F 23.4 °F 26.6 °F 86% 29.82 in 4.0 mi North 6.9 mph - N/A   Overcast
9:54 PM 30.2 °F 23.4 °F 26.6 °F 86% 29.82 in 4.0 mi NNE 6.9 mph - N/A   Overcast
9:56 PM 30.0 °F 22.4 °F 27.0 °F 88% 29.89 in 3.0 mi NNE 8.1 mph - N/A   Overcast
10:13 PM 28.4 °F 20.4 °F 26.6 °F 93% 29.82 in 2.0 mi North 8.1 mph - N/A   Overcast
10:22 PM 28.4 °F 20.4 °F 26.6 °F 93% 29.82 in 1.5 mi NNW 8.1 mph - N/A   Overcast
10:45 PM 28.4 °F 22.2 °F 26.6 °F 93% 29.81 in 0.8 mi North 5.8 mph - N/A   Mist
11:56 PM 28.0 °F 22.8 °F 26.1 °F 92% 29.88 in 0.5 mi NNW 4.6 mph - N/A Fog Light Freezing Fog